Time,TemperatureF,DewpointF,PressureIn,WindDirection,WindDirectionDegrees,WindSpeedMPH,WindSpeedGustMPH,Humidity,HourlyPrecipIn,Conditions,Clouds,dailyrainin,SoftwareType,DateUTC
2013-02-12 00:01:00,73.0,65.0,30.10,SSE,155,5.0,11.0,75,0.00,,,0.00,,2013-02-12 05:01:00,
2013-02-12 00:11:00,73.0,65.0,30.10,SE,125,3.0,11.0,76,0.00,,,0.00,,2013-02-12 05:11:00,
2013-02-12 00:21:00,73.0,65.0,30.10,SE,125,3.0,11.0,76,0.00,,,0.00,,2013-02-12 05:21:00,
2013-02-12 00:32:00,73.0,65.0,30.10,SE,127,2.0,11.0,76,0.00,,,0.00,,2013-02-12 05:32:00,
2013-02-12 00:42:00,73.0,65.0,30.10,SE,127,2.0,11.0,76,0.00,,,0.00,,2013-02-12 05:42:00,
2013-02-12 00:52:00,73.0,65.0,30.09,SE,131,3.0,7.0,76,0.00,,,0.00,,2013-02-12 05:52:00,
2013-02-12 01:02:00,73.0,65.0,30.09,SSE,147,4.0,9.0,77,0.00,,,0.00,,2013-02-12 06:02:00,
2013-02-12 01:12:00,73.0,65.0,30.09,SSE,157,5.0,9.0,77,0.00,,,0.00,,2013-02-12 06:12:00,
2013-02-12 01:22:00,73.0,65.0,30.09,SSE,157,5.0,9.0,77,0.00,,,0.00,,2013-02-12 06:22:00,
2013-02-12 01:32:00,73.0,65.0,30.09,SSE,165,4.0,9.0,77,0.00,,,0.00,,2013-02-12 06:32:00,
2013-02-12 01:42:00,73.0,65.0,30.09,SE,124,4.0,11.0,77,0.00,,,0.00,,2013-02-12 06:42:00,
2013-02-12 01:52:00,73.0,65.0,30.09,SE,124,4.0,11.0,77,0.00,,,0.00,,2013-02-12 06:52:00,
2013-02-12 02:02:00,73.0,65.0,30.08,SE,146,4.0,8.0,76,0.00,,,0.00,,2013-02-12 07:02:00,
2013-02-12 02:11:00,73.0,65.0,30.08,SE,146,4.0,8.0,76,0.00,,,0.00,,2013-02-12 07:11:00,
2013-02-12 02:21:00,73.0,65.0,30.08,ESE,113,4.0,7.0,77,0.00,,,0.00,,2013-02-12 07:21:00,
2013-02-12 02:32:00,73.0,66.0,30.08,SE,138,3.0,11.0,78,0.00,,,0.00,,2013-02-12 07:32:00,
2013-02-12 02:42:00,73.0,66.0,30.08,SE,138,3.0,11.0,78,0.00,,,0.00,,2013-02-12 07:42:00,
2013-02-12 02:51:00,73.0,66.0,30.07,SSE,167,5.0,10.0,78,0.00,,,0.00,,2013-02-12 07:51:00,
2013-02-12 03:01:00,73.0,66.0,30.06,ESE,107,4.0,8.0,78,0.00,,,0.00,,2013-02-12 08:01:00,
2013-02-12 03:11:00,73.0,66.0,30.06,ESE,107,4.0,8.0,78,0.00,,,0.00,,2013-02-12 08:11:00,
2013-02-12 03:21:00,72.0,65.0,30.06,SE,144,3.0,10.0,78,0.00,,,0.00,,2013-02-12 08:21:00,
2013-02-12 03:32:00,73.0,66.0,30.06,SSE,161,2.0,8.0,78,0.00,,,0.00,,2013-02-12 08:32:00,
2013-02-12 03:42:00,73.0,66.0,30.06,SSE,161,2.0,8.0,78,0.00,,,0.00,,2013-02-12 08:42:00,
2013-02-12 03:52:00,72.0,65.0,30.06,SSE,155,3.0,8.0,79,0.00,,,0.00,,2013-02-12 08:52:00,
2013-02-12 04:02:00,72.0,65.0,30.06,SSE,154,3.0,9.0,79,0.00,,,0.00,,2013-02-12 09:02:00,
2013-02-12 04:11:00,72.0,65.0,30.06,South,184,6.0,13.0,80,0.00,,,0.00,,2013-02-12 09:11:00,
2013-02-12 04:21:00,72.0,65.0,30.06,South,184,6.0,13.0,80,0.00,,,0.00,,2013-02-12 09:21:00,
2013-02-12 04:32:00,72.0,65.0,30.05,South,173,3.0,10.0,79,0.00,,,0.00,,2013-02-12 09:32:00,
2013-02-12 04:42:00,72.0,65.0,30.06,SSW,193,4.0,10.0,79,0.00,,,0.00,,2013-02-12 09:42:00,
2013-02-12 04:51:00,72.0,65.0,30.06,SSW,193,4.0,10.0,79,0.00,,,0.00,,2013-02-12 09:51:00,
2013-02-12 05:01:00,72.0,65.0,30.06,SE,131,5.0,10.0,79,0.00,,,0.00,,2013-02-12 10:01:00,
2013-02-12 05:11:00,72.0,65.0,30.06,SSE,154,4.0,9.0,79,0.00,,,0.00,,2013-02-12 10:11:00,
2013-02-12 05:21:00,72.0,65.0,30.06,SSE,154,4.0,9.0,79,0.00,,,0.00,,2013-02-12 10:21:00,
2013-02-12 05:32:00,73.0,66.0,30.06,South,184,4.0,9.0,80,0.00,,,0.00,,2013-02-12 10:32:00,
2013-02-12 05:43:00,73.0,66.0,30.06,South,184,4.0,9.0,80,0.00,,,0.00,,2013-02-12 10:43:00,
2013-02-12 05:51:00,72.0,65.0,30.06,SSE,165,4.0,9.0,80,0.00,,,0.00,,2013-02-12 10:51:00,
2013-02-12 06:01:00,72.0,65.0,30.06,South,175,5.0,9.0,80,0.00,,,0.00,,2013-02-12 11:01:00,
2013-02-12 06:11:00,72.0,65.0,30.06,South,182,3.0,7.0,80,0.00,,,0.00,,2013-02-12 11:11:00,
2013-02-12 06:22:00,72.0,65.0,30.06,South,182,3.0,7.0,80,0.00,,,0.00,,2013-02-12 11:22:00,
2013-02-12 06:32:00,72.0,66.0,30.06,SSE,168,2.0,5.0,81,0.00,,,0.00,,2013-02-12 11:32:00,
2013-02-12 06:42:00,72.0,66.0,30.06,SSE,168,2.0,5.0,81,0.00,,,0.00,,2013-02-12 11:42:00,
2013-02-12 06:52:00,72.0,66.0,30.06,SSE,163,3.0,7.0,81,0.00,,,0.00,,2013-02-12 11:52:00,
2013-02-12 07:02:00,71.0,65.0,30.06,South,173,3.0,6.0,82,0.00,,,0.00,,2013-02-12 12:02:00,
2013-02-12 07:11:00,71.0,65.0,30.07,South,185,3.0,7.0,82,0.00,,,0.00,,2013-02-12 12:11:00,
2013-02-12 07:21:00,71.0,65.0,30.07,South,185,3.0,7.0,82,0.00,,,0.00,,2013-02-12 12:21:00,
2013-02-12 07:32:00,71.0,66.0,30.07,South,178,2.0,6.0,83,0.00,,,0.00,,2013-02-12 12:32:00,
2013-02-12 07:42:00,71.0,65.0,30.07,SE,139,3.0,7.0,82,0.00,,,0.00,,2013-02-12 12:42:00,
2013-02-12 07:52:00,71.0,65.0,30.07,SE,139,3.0,7.0,82,0.00,,,0.00,,2013-02-12 12:52:00,
2013-02-12 08:02:00,72.0,67.0,30.07,SSE,163,4.0,10.0,83,0.00,,,0.00,,2013-02-12 13:02:00,
2013-02-12 08:11:00,73.0,66.0,30.07,SSE,163,3.0,9.0,80,0.00,,,0.00,,2013-02-12 13:11:00,
2013-02-12 08:22:00,73.0,66.0,30.07,SSE,163,3.0,9.0,80,0.00,,,0.00,,2013-02-12 13:22:00,
2013-02-12 08:32:00,73.0,66.0,30.07,SSE,163,3.0,9.0,80,0.00,,,0.00,,2013-02-12 13:32:00,
2013-02-12 08:42:00,73.0,66.0,30.07,SSE,163,3.0,9.0,80,0.00,,,0.00,,2013-02-12 13:42:00,
2013-02-12 08:52:00,74.0,67.0,30.08,SSE,167,5.0,12.0,79,0.00,,,0.00,,2013-02-12 13:52:00,
2013-02-12 09:01:00,74.0,67.0,30.08,South,175,7.0,11.0,78,0.00,,,0.00,,2013-02-12 14:01:00,
2013-02-12 09:12:00,74.0,67.0,30.08,South,175,7.0,11.0,78,0.00,,,0.00,,2013-02-12 14:12:00,
2013-02-12 09:21:00,74.0,66.0,30.08,SSE,165,5.0,13.0,77,0.00,,,0.00,,2013-02-12 14:21:00,
2013-02-12 09:32:00,74.0,66.0,30.09,South,190,8.0,13.0,77,0.00,,,0.00,,2013-02-12 14:32:00,
2013-02-12 09:42:00,74.0,66.0,30.09,South,190,8.0,13.0,77,0.00,,,0.00,,2013-02-12 14:42:00,
2013-02-12 09:52:00,75.0,67.0,30.09,South,186,6.0,14.0,77,0.00,,,0.00,,2013-02-12 14:52:00,
2013-02-12 10:02:00,75.0,67.0,30.09,South,175,7.0,13.0,77,0.00,,,0.00,,2013-02-12 15:02:00,
2013-02-12 10:11:00,75.0,67.0,30.09,South,179,6.0,14.0,75,0.00,,,0.00,,2013-02-12 15:11:00,
2013-02-12 10:21:00,75.0,67.0,30.09,South,179,6.0,14.0,75,0.00,,,0.00,,2013-02-12 15:21:00,
2013-02-12 10:32:00,76.0,67.0,30.10,SSE,163,6.0,14.0,74,0.00,,,0.00,,2013-02-12 15:32:00,
2013-02-12 10:42:00,76.0,67.0,30.10,SSE,163,6.0,14.0,74,0.00,,,0.00,,2013-02-12 15:42:00,
2013-02-12 10:52:00,76.0,67.0,30.10,SSE,168,6.0,13.0,75,0.00,,,0.00,,2013-02-12 15:52:00,
2013-02-12 11:01:00,76.0,67.0,30.10,SSE,157,8.0,14.0,74,0.00,,,0.00,,2013-02-12 16:01:00,
2013-02-12 11:11:00,76.0,67.0,30.10,SSE,157,8.0,14.0,74,0.00,,,0.00,,2013-02-12 16:11:00,
2013-02-12 11:22:00,76.0,67.0,30.09,South,176,6.0,13.0,75,0.00,,,0.00,,2013-02-12 16:22:00,
2013-02-12 11:32:00,77.0,68.0,30.09,South,182,5.0,12.0,74,0.00,,,0.00,,2013-02-12 16:32:00,
2013-02-12 11:42:00,77.0,68.0,30.09,South,182,5.0,12.0,74,0.00,,,0.00,,2013-02-12 16:42:00,
2013-02-12 11:51:00,77.0,68.0,30.09,SE,134,6.0,14.0,73,0.00,,,0.00,,2013-02-12 16:51:00,
2013-02-12 12:01:00,77.0,68.0,30.08,SSE,167,5.0,14.0,75,0.00,,,0.00,,2013-02-12 17:01:00,
2013-02-12 12:12:00,78.0,69.0,30.08,SSE,164,4.0,12.0,74,0.00,,,0.00,,2013-02-12 17:12:00,
2013-02-12 12:21:00,78.0,69.0,30.08,SSE,164,4.0,12.0,74,0.00,,,0.00,,2013-02-12 17:21:00,
2013-02-12 12:32:00,78.0,69.0,30.07,SE,130,5.0,10.0,74,0.00,,,0.00,,2013-02-12 17:32:00,
2013-02-12 12:42:00,78.0,69.0,30.07,SE,130,5.0,10.0,74,0.00,,,0.00,,2013-02-12 17:42:00,
2013-02-12 12:52:00,77.0,68.0,30.06,SSE,159,7.0,12.0,74,0.00,,,0.00,,2013-02-12 17:52:00,
2013-02-12 13:02:00,77.0,68.0,30.06,South,181,6.0,12.0,74,0.00,,,0.00,,2013-02-12 18:02:00,
2013-02-12 13:11:00,77.0,68.0,30.05,SE,134,6.0,15.0,74,0.00,,,0.00,,2013-02-12 18:11:00,
2013-02-12 13:23:00,77.0,68.0,30.05,SE,134,6.0,15.0,74,0.00,,,0.00,,2013-02-12 18:23:00,
2013-02-12 13:32:00,76.0,68.0,30.04,SSE,163,5.0,12.0,77,0.00,,,0.00,,2013-02-12 18:32:00,
2013-02-12 13:41:00,78.0,69.0,30.03,SSE,151,7.0,14.0,74,0.00,,,0.00,,2013-02-12 18:41:00,
2013-02-12 13:51:00,78.0,69.0,30.03,SSE,151,7.0,14.0,74,0.00,,,0.00,,2013-02-12 18:51:00,
2013-02-12 14:02:00,77.0,68.0,30.02,SE,145,6.0,13.0,75,0.00,,,0.00,,2013-02-12 19:02:00,
2013-02-12 14:11:00,78.0,69.0,30.02,SSE,163,6.0,13.0,75,0.00,,,0.00,,2013-02-12 19:11:00,
2013-02-12 14:21:00,78.0,69.0,30.02,SSE,163,6.0,13.0,75,0.00,,,0.00,,2013-02-12 19:21:00,
2013-02-12 14:32:00,77.0,69.0,30.01,SSW,194,6.0,18.0,76,0.00,,,0.00,,2013-02-12 19:32:00,
2013-02-12 14:41:00,78.0,70.0,30.01,SSE,151,5.0,16.0,76,0.00,,,0.00,,2013-02-12 19:41:00,
2013-02-12 14:51:00,78.0,70.0,30.01,SSE,151,5.0,16.0,76,0.00,,,0.00,,2013-02-12 19:51:00,
2013-02-12 15:01:00,78.0,70.0,30.01,SSE,159,5.0,15.0,76,0.00,,,0.00,,2013-02-12 20:01:00,
2013-02-12 15:11:00,78.0,70.0,30.01,SSE,159,5.0,15.0,76,0.00,,,0.00,,2013-02-12 20:11:00,
2013-02-12 15:21:00,77.0,69.0,30.00,South,173,7.0,17.0,76,0.00,,,0.00,,2013-02-12 20:21:00,
2013-02-12 15:32:00,76.0,69.0,30.00,South,170,6.0,14.0,79,0.00,,,0.00,,2013-02-12 20:32:00,
2013-02-12 15:41:00,77.0,69.0,29.99,SSE,155,9.0,18.0,76,0.00,,,0.00,,2013-02-12 20:41:00,
2013-02-12 15:52:00,77.0,69.0,29.99,SSE,155,9.0,18.0,76,0.00,,,0.00,,2013-02-12 20:52:00,
2013-02-12 16:02:00,77.0,69.0,29.99,SSE,155,9.0,18.0,76,0.00,,,0.00,,2013-02-12 21:02:00,
2013-02-12 16:11:00,77.0,69.0,29.99,SSE,155,9.0,18.0,76,0.00,,,0.00,,2013-02-12 21:11:00,
2013-02-12 16:21:00,77.0,69.0,29.98,SE,145,6.0,15.0,77,0.00,,,0.00,,2013-02-12 21:21:00,
2013-02-12 16:32:00,77.0,69.0,29.98,SE,145,6.0,15.0,77,0.00,,,0.00,,2013-02-12 21:32:00,
2013-02-12 16:42:00,77.0,69.0,29.98,SE,145,6.0,15.0,77,0.00,,,0.00,,2013-02-12 21:42:00,
2013-02-12 16:51:00,77.0,69.0,29.98,SE,145,6.0,15.0,77,0.00,,,0.00,,2013-02-12 21:51:00,
2013-02-12 17:12:00,76.0,69.0,29.96,SSW,194,6.0,17.0,80,0.00,,,0.00,,2013-02-12 22:12:00,
2013-02-12 17:22:00,76.0,69.0,29.96,SSW,194,6.0,17.0,80,0.00,,,0.00,,2013-02-12 22:22:00,
2013-02-12 17:32:00,76.0,70.0,29.96,South,169,6.0,14.0,81,0.00,,,0.00,,2013-02-12 22:32:00,
2013-02-12 17:42:00,76.0,70.0,29.96,South,169,6.0,14.0,81,0.00,,,0.00,,2013-02-12 22:42:00,
2013-02-12 17:51:00,75.0,69.0,29.96,South,180,10.0,18.0,81,0.00,,,0.00,,2013-02-12 22:51:00,
2013-02-12 18:02:00,75.0,69.0,29.97,SSE,155,10.0,18.0,81,0.00,,,0.00,,2013-02-12 23:02:00,
2013-02-12 18:11:00,75.0,69.0,29.97,SSE,147,7.0,13.0,82,0.00,,,0.00,,2013-02-12 23:11:00,
2013-02-12 18:21:00,75.0,69.0,29.97,SSE,147,7.0,13.0,82,0.00,,,0.00,,2013-02-12 23:21:00,
2013-02-12 18:32:00,75.0,69.0,29.97,SSE,165,7.0,14.0,82,0.00,,,0.00,,2013-02-12 23:32:00,
2013-02-12 18:42:00,75.0,69.0,29.97,SSE,165,7.0,14.0,82,0.00,,,0.00,,2013-02-12 23:42:00,
2013-02-12 18:52:00,74.0,68.0,29.97,SSE,150,7.0,12.0,82,0.00,,,0.00,,2013-02-12 23:52:00,
2013-02-12 19:02:00,74.0,68.0,29.97,South,170,6.0,13.0,83,0.00,,,0.00,,2013-02-13 00:02:00,
2013-02-12 19:11:00,74.0,68.0,29.97,South,170,6.0,13.0,83,0.00,,,0.00,,2013-02-13 00:11:00,
2013-02-12 19:21:00,74.0,68.0,29.97,SSE,157,7.0,12.0,83,0.00,,,0.00,,2013-02-13 00:21:00,
2013-02-12 19:32:00,74.0,68.0,29.97,SSE,149,7.0,12.0,83,0.00,,,0.00,,2013-02-13 00:32:00,
2013-02-12 19:42:00,74.0,68.0,29.97,SSE,149,7.0,12.0,83,0.00,,,0.00,,2013-02-13 00:42:00,
2013-02-12 19:52:00,74.0,68.0,29.97,South,178,5.0,12.0,83,0.00,,,0.00,,2013-02-13 00:52:00,
2013-02-12 20:01:00,74.0,69.0,29.96,SE,128,6.0,11.0,84,0.00,,,0.00,,2013-02-13 01:01:00,
2013-02-12 20:11:00,74.0,69.0,29.96,SE,128,6.0,11.0,84,0.00,,,0.00,,2013-02-13 01:11:00,
2013-02-12 20:21:00,74.0,69.0,29.97,SSE,168,4.0,10.0,84,0.00,,,0.00,,2013-02-13 01:21:00,
2013-02-12 20:32:00,74.0,69.0,29.97,South,169,6.0,11.0,84,0.00,,,0.00,,2013-02-13 01:32:00,
2013-02-12 20:42:00,74.0,69.0,29.97,SSW,193,6.0,11.0,84,0.00,,,0.00,,2013-02-13 01:42:00,
2013-02-12 20:51:00,74.0,69.0,29.97,SSW,193,6.0,11.0,84,0.00,,,0.00,,2013-02-13 01:51:00,
2013-02-12 21:01:00,74.0,69.0,29.98,South,180,6.0,12.0,84,0.00,,,0.00,,2013-02-13 02:01:00,
2013-02-12 21:11:00,74.0,69.0,29.98,SSE,157,4.0,9.0,84,0.00,,,0.00,,2013-02-13 02:11:00,
2013-02-12 21:22:00,74.0,69.0,29.98,SSE,157,4.0,9.0,84,0.00,,,0.00,,2013-02-13 02:22:00,
2013-02-12 21:32:00,74.0,69.0,29.98,South,180,4.0,10.0,84,0.00,,,0.00,,2013-02-13 02:32:00,
2013-02-12 21:42:00,74.0,69.0,29.98,South,180,4.0,10.0,84,0.00,,,0.00,,2013-02-13 02:42:00,
2013-02-12 21:52:00,74.0,69.0,29.99,South,184,4.0,8.0,84,0.00,,,0.00,,2013-02-13 02:52:00,
2013-02-12 22:01:00,74.0,69.0,29.99,SSE,165,4.0,7.0,84,0.00,,,0.00,,2013-02-13 03:01:00,
2013-02-12 22:11:00,74.0,69.0,30.00,SSE,167,2.0,6.0,84,0.00,,,0.00,,2013-02-13 03:11:00,
2013-02-12 22:21:00,74.0,69.0,30.00,SSE,167,2.0,6.0,84,0.00,,,0.00,,2013-02-13 03:21:00,
2013-02-12 22:32:00,74.0,69.0,30.00,South,177,2.0,6.0,85,0.00,,,0.00,,2013-02-13 03:32:00,
2013-02-12 22:42:00,74.0,69.0,30.00,South,177,2.0,6.0,85,0.00,,,0.00,,2013-02-13 03:42:00,
2013-02-12 22:51:00,74.0,69.0,30.01,SSE,165,1.0,4.0,85,0.00,,,0.00,,2013-02-13 03:51:00,
2013-02-12 23:01:00,73.0,68.0,30.01,SSE,165,1.0,4.0,85,0.00,,,0.00,,2013-02-13 04:01:00,
2013-02-12 23:11:00,73.0,68.0,30.01,SSE,165,1.0,4.0,85,0.00,,,0.00,,2013-02-13 04:11:00,
2013-02-12 23:21:00,73.0,68.0,30.00,SSE,164,0.0,4.0,85,0.00,,,0.00,,2013-02-13 04:21:00,
2013-02-12 23:32:00,73.0,68.0,30.00,SSE,164,0.0,3.0,85,0.00,,,0.00,,2013-02-13 04:32:00,
2013-02-12 23:41:00,73.0,68.0,30.00,SSE,164,0.0,3.0,85,0.00,,,0.00,,2013-02-13 04:41:00,
2013-02-12 23:51:00,73.0,68.0,30.00,SSE,164,0.0,3.0,85,0.00,,,0.00,,2013-02-13 04:51:00,